SB KEPS @ AMSAT $ORB09057.O Orbital Elements 09057.OSCAR
HR AMSAT ORBITAL ELEMENTS FOR OSCAR SATELLITES FROM WA5QGD FORT WORTH,TX February 26, 2009 Send Subscribe/unsubscribe to KEPS at http://www.amsat.org/mailman/listinfo/keps BID: ORB09057.O TO ALL RADIO AMATEURS BT
Satellite: AO-07 Catalog number: 07530 Epoch time: 09056.59925080 Element set: 0414 Inclination: 101.4399 deg RA of node: 085.3285 deg Eccentricity: 0.0012028 Arg of perigee: 126.6023 deg Mean anomaly: 233.6153 deg Mean motion: 12.53575245 rev/day Decay rate: -2.7e-07 rev/day^2 Epoch rev: 56873 Checksum: 292
Satellite: AO-10 Catalog number: 14129 Epoch time: 09057.52070933 Element set: 626 Inclination: 025.9880 deg RA of node: 169.5367 deg Eccentricity: 0.5974274 Arg of perigee: 201.3714 deg Mean anomaly: 116.2490 deg Mean motion: 02.05867129 rev/day Decay rate: .00000000 rev/day^2 Epoch rev: 19333 Checksum: 292
Satellite: UO-11 Catalog number: 14781 Epoch time: 09056.57071941 Element set: 896 Inclination: 098.1226 deg RA of node: 099.9433 deg Eccentricity: 0.0008684 Arg of perigee: 343.9843 deg Mean anomaly: 016.1078 deg Mean motion: 14.79697391 rev/day Decay rate: 2.29e-06 rev/day^2 Epoch rev: 34132 Checksum: 340
Satellite: RS-15 Catalog number: 23439 Epoch time: 09057.55877997 Element set: 183 Inclination: 064.8141 deg RA of node: 083.7135 deg Eccentricity: 0.0146104 Arg of perigee: 073.0617 deg Mean anomaly: 288.6265 deg Mean motion: 11.27553111 rev/day Decay rate: -3.9e-07 rev/day^2 Epoch rev: 58364 Checksum: 322
Satellite: FO-29 Catalog number: 24278 Epoch time: 09056.85180157 Element set: 980 Inclination: 098.5713 deg RA of node: 305.7569 deg Eccentricity: 0.0349793 Arg of perigee: 278.8664 deg Mean anomaly: 077.3029 deg Mean motion: 13.52942662 rev/day Decay rate: 5.1e-07 rev/day^2 Epoch rev: 61869 Checksum: 365
Satellite: SO-33 Catalog number: 25509 Epoch time: 09056.78063048 Element set: 0396 Inclination: 031.4324 deg RA of node: 322.4443 deg Eccentricity: 0.0354175 Arg of perigee: 084.4541 deg Mean anomaly: 279.6369 deg Mean motion: 14.28242841 rev/day Decay rate: 1.12e-06 rev/day^2 Epoch rev: 53989 Checksum: 317
Satellite: AO-40 Catalog number: 26609 Epoch time: 09054.87860206 Element set: 196 Inclination: 008.7844 deg RA of node: 031.3709 deg Eccentricity: 0.7951438 Arg of perigee: 178.6236 deg Mean anomaly: 187.9692 deg Mean motion: 01.25585141 rev/day Decay rate: -1.86e-06 rev/day^2 Epoch rev: 3820 Checksum: 335
Satellite: RS-22 Catalog number: 27939 Epoch time: 09057.69782248 Element set: 726 Inclination: 097.9632 deg RA of node: 296.4853 deg Eccentricity: 0.0014571 Arg of perigee: 119.2749 deg Mean anomaly: 240.9930 deg Mean motion: 14.63296851 rev/day Decay rate: 7.0e-07 rev/day^2 Epoch rev: 28941 Checksum: 354
Satellite: VO-52 Catalog number: 28650 Epoch time: 09056.68079578 Element set: 0164 Inclination: 097.7561 deg RA of node: 121.8815 deg Eccentricity: 0.0027828 Arg of perigee: 035.7510 deg Mean anomaly: 324.5598 deg Mean motion: 14.81557123 rev/day Decay rate: 3.05e-06 rev/day^2 Epoch rev: 20613 Checksum: 321
Satellite: PO-63 Catalog number: 29712 Epoch time: 09057.71733473 Element set: 268 Inclination: 097.8430 deg RA of node: 116.7042 deg Eccentricity: 0.0013059 Arg of perigee: 275.7881 deg Mean anomaly: 084.1832 deg Mean motion: 14.80452886 rev/day Decay rate: 4.18e-06 rev/day^2 Epoch rev: 11512 Checksum: 315
/EX SB KEPS @ AMSAT $ORB09057.D Orbital Elements 09057.MICROS
HR AMSAT ORBITAL ELEMENTS FOR THE MICROSATS FROM WA5QGD FORT WORTH,TX February 26, 2009 Send Subscribe/unsubscribe to KEPS at http://www.amsat.org/mailman/listinfo/keps BID: ORB09057.D TO ALL RADIO AMATEURS BT
Satellite: AO-16 Catalog number: 20439 Epoch time: 09056.46367443 Element set: 0544 Inclination: 098.2647 deg RA of node: 030.0262 deg Eccentricity: 0.0011399 Arg of perigee: 138.8009 deg Mean anomaly: 221.4032 deg Mean motion: 14.31816837 rev/day Decay rate: 4.0e-08 rev/day^2 Epoch rev: 99716 Checksum: 300
Satellite: LO-19 Catalog number: 20442 Epoch time: 09056.46912327 Element set: 0465 Inclination: 098.2289 deg RA of node: 037.7172 deg Eccentricity: 0.0012476 Arg of perigee: 136.3994 deg Mean anomaly: 223.8190 deg Mean motion: 14.32053438 rev/day Decay rate: -1.5e-07 rev/day^2 Epoch rev: 99732 Checksum: 317
Satellite: AO-27 Catalog number: 22825 Epoch time: 09057.39578790 Element set: 186 Inclination: 098.4227 deg RA of node: 014.3841 deg Eccentricity: 0.0007651 Arg of perigee: 227.8694 deg Mean anomaly: 132.1857 deg Mean motion: 14.29259235 rev/day Decay rate: -2.1e-07 rev/day^2 Epoch rev: 80408 Checksum: 326
Satellite: IO-26 Catalog number: 22826 Epoch time: 09056.84550312 Element set: 0906 Inclination: 098.4152 deg RA of node: 014.6494 deg Eccentricity: 0.0008158 Arg of perigee: 225.9663 deg Mean anomaly: 134.0847 deg Mean motion: 14.29510346 rev/day Decay rate: 8.0e-08 rev/day^2 Epoch rev: 80410 Checksum: 298
Satellite: GO-32 Catalog number: 25397 Epoch time: 09056.84780380 Element set: 830 Inclination: 098.3367 deg RA of node: 085.0975 deg Eccentricity: 0.0000812 Arg of perigee: 169.3910 deg Mean anomaly: 190.7269 deg Mean motion: 14.23154937 rev/day Decay rate: -1.09e-06 rev/day^2 Epoch rev: 55229 Checksum: 327
Satellite: NO-44 Catalog number: 26931 Epoch time: 09056.83374293 Element set: 107 Inclination: 067.0544 deg RA of node: 351.2181 deg Eccentricity: 0.0005391 Arg of perigee: 262.7269 deg Mean anomaly: 097.3234 deg Mean motion: 14.29547427 rev/day Decay rate: -9.1e-07 rev/day^2 Epoch rev: 38666 Checksum: 319
Satellite: SO-50 Catalog number: 27607 Epoch time: 09056.31795374 Element set: 0824 Inclination: 064.5592 deg RA of node: 004.8523 deg Eccentricity: 0.0078165 Arg of perigee: 229.7387 deg Mean anomaly: 129.6863 deg Mean motion: 14.71416093 rev/day Decay rate: -5.9e-07 rev/day^2 Epoch rev: 33221 Checksum: 326
Satellite: CO-55 Catalog number: 27844 Epoch time: 09057.62704266 Element set: 520 Inclination: 098.7153 deg RA of node: 068.3429 deg Eccentricity: 0.0010579 Arg of perigee: 100.4288 deg Mean anomaly: 259.8086 deg Mean motion: 14.20624404 rev/day Decay rate: 6.2e-07 rev/day^2 Epoch rev: 29356 Checksum: 315
Satellite: CO-57 Catalog number: 27848 Epoch time: 09057.58923671 Element set: 467 Inclination: 098.7173 deg RA of node: 067.3697 deg Eccentricity: 0.0010547 Arg of perigee: 105.2570 deg Mean anomaly: 254.9758 deg Mean motion: 14.20428101 rev/day Decay rate: 2.1e-07 rev/day^2 Epoch rev: 29352 Checksum: 328
Satellite: AO-51 Catalog number: 28375 Epoch time: 09056.55996147 Element set: 0327 Inclination: 098.0564 deg RA of node: 072.6511 deg Eccentricity: 0.0084710 Arg of perigee: 103.4566 deg Mean anomaly: 257.6086 deg Mean motion: 14.40633953 rev/day Decay rate: 4.0e-08 rev/day^2 Epoch rev: 24488 Checksum: 322
Satellite: CO-56 Catalog number: 28941 Epoch time: 09057.54442526 Element set: 853 Inclination: 098.1262 deg RA of node: 212.3538 deg Eccentricity: 0.0116630 Arg of perigee: 187.5001 deg Mean anomaly: 172.4437 deg Mean motion: 15.72565119 rev/day Decay rate: 5.9419e-04 rev/day^2 Epoch rev: 16979 Checksum: 333
Satellite: CP3 Catalog number: 31128 Epoch time: 09057.68892488 Element set: 566 Inclination: 098.0022 deg RA of node: 115.8973 deg Eccentricity: 0.0101867 Arg of perigee: 267.5100 deg Mean anomaly: 091.4435 deg Mean motion: 14.52020759 rev/day Decay rate: -4.8e-07 rev/day^2 Epoch rev: 9886 Checksum: 323
Satellite: CP4 Catalog number: 31132 Epoch time: 09057.64884494 Element set: 544 Inclination: 098.0084 deg RA of node: 119.3027 deg Eccentricity: 0.0084642 Arg of perigee: 257.6589 deg Mean anomaly: 101.5114 deg Mean motion: 14.55186028 rev/day Decay rate: 9.7e-07 rev/day^2 Epoch rev: 9895 Checksum: 323
Satellite: CO-65 Catalog number: 32785 Epoch time: 09057.22175294 Element set: 300 Inclination: 097.9609 deg RA of node: 122.0406 deg Eccentricity: 0.0015751 Arg of perigee: 035.4392 deg Mean anomaly: 324.7841 deg Mean motion: 14.81452238 rev/day Decay rate: 1.70e-06 rev/day^2 Epoch rev: 4501 Checksum: 287
/EX SB KEPS @ AMSAT $ORB09057.W Orbital Elements 09057.WEATHER
HR AMSAT ORBITAL ELEMENTS FOR WEATHER SATELLITES FROM WA5QGD FORT WORTH,TX February 26, 2009 Send Subscribe/unsubscribe to KEPS at http://www.amsat.org/mailman/listinfo/keps BID: ORB09057.W TO ALL RADIO AMATEURS BT
Satellite: NOAA-10 Catalog number: 16969 Epoch time: 09056.63126659 Element set: 0516 Inclination: 098.7033 deg RA of node: 083.8285 deg Eccentricity: 0.0012564 Arg of perigee: 158.9965 deg Mean anomaly: 201.1730 deg Mean motion: 14.27380423 rev/day Decay rate: -4.3e-07 rev/day^2 Epoch rev: 16759 Checksum: 322
Satellite: NOAA-11 Catalog number: 19531 Epoch time: 09056.82925301 Element set: 0526 Inclination: 098.7854 deg RA of node: 148.5063 deg Eccentricity: 0.0012338 Arg of perigee: 067.2653 deg Mean anomaly: 292.9823 deg Mean motion: 14.14888388 rev/day Decay rate: -2.36e-06 rev/day^2 Epoch rev: 05377 Checksum: 330
Satellite: NOAA-12 Catalog number: 21263 Epoch time: 09056.93147098 Element set: 0037 Inclination: 098.7734 deg RA of node: 064.9335 deg Eccentricity: 0.0013204 Arg of perigee: 106.6918 deg Mean anomaly: 253.5713 deg Mean motion: 14.25567671 rev/day Decay rate: 7.0e-08 rev/day^2 Epoch rev: 92454 Checksum: 310
Satellite: MET-3/5 Catalog number: 21655 Epoch time: 09056.93047565 Element set: 0646 Inclination: 082.5522 deg RA of node: 285.1082 deg Eccentricity: 0.0014595 Arg of perigee: 096.6829 deg Mean anomaly: 263.5954 deg Mean motion: 13.17018347 rev/day Decay rate: 5.1e-07 rev/day^2 Epoch rev: 84298 Checksum: 333
Satellite: MET-2/21 Catalog number: 22782 Epoch time: 09057.68321860 Element set: 389 Inclination: 082.5439 deg RA of node: 269.6725 deg Eccentricity: 0.0021202 Arg of perigee: 298.6670 deg Mean anomaly: 061.2377 deg Mean motion: 13.83633749 rev/day Decay rate: 3.9e-07 rev/day^2 Epoch rev: 78232 Checksum: 332
